Stations météo

Publicité
Boulogne, France (7002): Température de l'air & dewpoint: 11.08.2019 16:00:00 - 17.08.2019 16:00:00 (CEST)Boulogne, France (7002): Vitesse du vent & gusts: 11.08.2019 16:00:00 - 17.08.2019 16:00:00 (CEST)Boulogne, France (7002): Direction du vent: 11.08.2019 16:00:00 - 17.08.2019 16:00:00 (CEST)Boulogne, France (7002): reduced air pressure: 11.08.2019 16:00:00 - 17.08.2019 16:00:00 (CEST)Boulogne, France (7002): visibility: 11.08.2019 16:00:00 - 17.08.2019 16:00:00 (CEST)Boulogne, France (7002): Quantités de précipitations: 11.08.2019 16:00:00 - 17.08.2019 16:00:00 (CEST)
Date & Time tt [°C] td [°C] ff [km/h] ff [knt] fx [km/h] fx [knt] dd ppp [hPa] vv [km] rr [mm]
17.08.2019 16:00:00 17,4 14,5 29 16 47 25 WSW 1007,8 - 0,0
17.08.2019 15:00:00 17,5 14,8 30 16 50 27 WSW 1007,7 - 0,0
17.08.2019 14:00:00 17,4 14,3 31 17 44 24 WSW 1007,4 9 0,0
17.08.2019 13:00:00 17,4 14,5 26 14 40 21 SW 1007,1 - 0,0
17.08.2019 12:00:00 17,2 15,0 28 15 40 21 SW 1007,2 - 0,2
17.08.2019 11:00:00 17,8 17,6 25 13 42 23 SW 1006,4 12 0,0
17.08.2019 10:00:00 18,0 17,8 35 19 54 29 WSW 1006,6 - 0,2
17.08.2019 09:00:00 17,9 17,7 37 20 53 28 SW 1006,2 - 0,0
17.08.2019 08:00:00 17,7 17,5 37 20 57 31 SW 1006,1 - 0,4
17.08.2019 07:00:00 17,4 17,2 27 15 56 30 SSW 1005,9 - 2,6
17.08.2019 06:00:00 17,3 17,0 31 17 64 35 SW 1005,8 - 0,4
17.08.2019 05:00:00 17,0 16,7 32 17 66 36 SW 1006,2 8 0,2
17.08.2019 04:00:00 17,0 16,2 37 20 66 36 SW 1006,2 - 0,0
17.08.2019 03:00:00 16,7 15,9 33 18 62 34 SW 1006,7 - 0,6
17.08.2019 02:00:00 16,8 15,8 36 19 64 35 SW 1007,2 8 0,6
17.08.2019 01:00:00 17,2 14,8 24 13 48 26 S 1007,6 - 0,0
17.08.2019 00:00:00 17,1 14,9 26 14 48 26 S 1008,2 - 0,0
16.08.2019 23:00:00 16,5 15,4 22 12 42 23 S 1008,9 - 0,2
16.08.2019 22:00:00 16,8 15,3 22 12 38 21 S 1009,8 - 1,4
16.08.2019 21:00:00 16,9 15,1 18 10 30 16 S 1010,3 - 0,6
16.08.2019 20:00:00 17,5 14,0 17 9 31 17 S 1010,8 8 0,0
16.08.2019 19:00:00 18,0 13,5 17 9 33 18 SW 1011,6 - 0,0
16.08.2019 18:00:00 18,0 13,5 19 11 39 21 SW 1012,0 - 0,0
16.08.2019 17:00:00 17,8 14,1 25 14 37 20 SW 1012,8 - 0,0
16.08.2019 16:00:00 18,2 15,1 28 15 45 24 WSW 1013,1 - 0,0
16.08.2019 15:00:00 18,9 13,7 27 15 45 24 SW 1013,9 - 0,0
16.08.2019 14:00:00 19,8 13,7 24 13 47 25 SSW 1014,6 9 0,0
16.08.2019 13:00:00 17,7 12,8 26 14 41 22 SSW 1015,3 - 0,0
16.08.2019 12:00:00 18,1 14,2 23 12 42 23 S 1015,7 - 0,0
16.08.2019 11:00:00 17,9 14,2 22 12 40 22 SSW 1016,0 - 0,0
16.08.2019 10:00:00 17,4 14,3 23 12 41 22 SW 1016,3 - 0,0
16.08.2019 09:00:00 17,0 14,8 21 11 36 20 SW 1016,6 - 0,0
16.08.2019 08:00:00 16,7 14,9 21 12 35 19 SW 1016,9 9 0,0
16.08.2019 07:00:00 16,5 15,0 18 10 29 16 SW 1016,9 - 0,0
16.08.2019 06:00:00 16,1 14,5 8 5 17 9 SSW 1017,2 - 0,0
16.08.2019 05:00:00 16,5 11,8 10 6 23 13 WSW 1017,5 10 0,0
16.08.2019 04:00:00 16,6 12,5 14 7 25 14 W 1017,7 - 0,0
16.08.2019 03:00:00 16,9 13,0 16 8 31 17 WNW 1018,0 - 0,0
16.08.2019 02:00:00 17,1 13,0 24 13 38 21 W 1017,9 - 0,0
16.08.2019 01:00:00 17,2 15,0 24 13 40 22 W 1017,7 - 0,0
16.08.2019 00:00:00 17,3 15,6 22 12 40 21 W 1017,7 - 0,0
15.08.2019 23:00:00 17,5 15,3 22 12 50 27 W 1017,1 8 0,0
15.08.2019 22:00:00 17,7 15,1 30 16 54 29 W 1016,9 - 0,0
15.08.2019 21:00:00 17,8 14,9 35 19 57 31 W 1016,4 - 0,0
15.08.2019 20:00:00 17,7 14,6 35 19 59 32 WSW 1015,9 8 0,0
15.08.2019 19:00:00 18,4 14,7 33 18 59 32 WSW 1015,3 - 0,0
15.08.2019 18:00:00 18,6 15,1 36 19 61 33 WSW 1014,9 - 0,0
15.08.2019 17:00:00 19,4 15,5 32 17 58 31 WSW 1014,6 10 0,0
15.08.2019 16:00:00 19,1 15,4 37 20 63 34 WSW 1014,1 - 0,0
15.08.2019 15:00:00 19,2 14,0 34 19 61 33 WSW 1013,7 - 0,0
15.08.2019 14:00:00 18,6 14,3 33 18 57 31 WSW 1013,2 10 0,0
15.08.2019 13:00:00 18,6 14,7 34 19 58 31 W 1012,5 - 0,0
15.08.2019 12:00:00 17,4 14,5 34 18 57 31 W 1012,1 - 0,0
15.08.2019 11:00:00 17,5 14,4 36 19 56 31 W 1011,7 8 0,0
15.08.2019 10:00:00 17,4 14,9 32 17 55 30 W 1011,3 - 0,0
15.08.2019 09:00:00 17,4 15,4 31 17 58 31 W 1011,0 - 0,0
15.08.2019 08:00:00 17,2 15,4 29 16 51 28 W 1010,5 15 0,0
15.08.2019 07:00:00 16,7 15,2 28 15 49 27 W 1009,8 - 0,0
15.08.2019 06:00:00 17,1 16,3 32 18 55 30 WSW 1009,2 - 0,0
15.08.2019 05:00:00 17,1 16,3 34 18 52 28 WSW 1009,0 4,0 0,0
15.08.2019 04:00:00 17,1 16,3 34 19 55 30 WSW 1009,2 - 0,0
15.08.2019 03:00:00 17,0 16,2 34 18 58 31 WSW 1009,5 - 0,0
15.08.2019 02:00:00 17,0 16,2 40 22 60 32 WSW 1009,7 - 0,0
15.08.2019 01:00:00 17,3 16,0 39 21 65 35 WSW 1010,0 - 0,0
15.08.2019 00:00:00 17,1 16,6 34 18 57 31 SW 1009,9 - 0,0
14.08.2019 23:00:00 16,5 16,2 30 16 57 31 SSW 1010,3 1,5 0,4
14.08.2019 22:00:00 16,2 15,7 27 14 54 29 SSW 1010,8 - 0,2
14.08.2019 21:00:00 16,2 15,6 25 14 54 29 SSW 1010,9 - 1,4
14.08.2019 20:00:00 16,2 15,6 20 11 41 22 S 1011,5 1,5 1,0
14.08.2019 19:00:00 16,3 15,2 17 9 48 26 S 1012,4 - 0,8
14.08.2019 18:00:00 17,8 14,3 18 10 39 21 S 1012,8 - 0,0
14.08.2019 17:00:00 17,9 14,6 18 10 45 24 S 1013,4 7 0,2
14.08.2019 16:00:00 18,3 14,6 18 10 32 17 S 1014,3 - 0,0
14.08.2019 15:00:00 16,8 14,4 15 8 38 21 S 1015,4 - 0,0
14.08.2019 14:00:00 16,3 14,7 20 11 39 21 S 1015,8 - 0,8
14.08.2019 13:00:00 17,4 13,3 24 13 44 24 S 1016,2 - 0,0
14.08.2019 12:00:00 17,4 13,3 18 10 36 20 S 1016,5 - 0,0
14.08.2019 11:00:00 16,9 13,0 23 13 36 20 SW 1016,8 14 0,0
14.08.2019 10:00:00 17,0 13,7 15 8 31 17 SSW 1017,1 - 0,0
14.08.2019 09:00:00 15,6 13,3 12 7 23 13 SSE 1017,5 - 0,0
14.08.2019 08:00:00 15,0 12,3 11 6 29 15 SSE 1017,5 13 0,0
14.08.2019 07:00:00 15,7 12,4 15 8 31 17 WSW 1017,5 - 0,0
14.08.2019 06:00:00 15,7 12,3 20 11 31 17 WSW 1017,5 - 0,0
14.08.2019 05:00:00 15,7 12,1 21 11 29 16 WSW 1017,9 - 0,0
14.08.2019 04:00:00 15,6 12,5 15 8 29 16 WSW 1018,1 - 0,0
14.08.2019 03:00:00 15,6 12,7 18 10 31 17 WSW 1018,3 - 0,0
14.08.2019 02:00:00 15,7 12,8 21 11 31 17 WSW 1018,6 12 0,0
14.08.2019 01:00:00 15,9 12,6 21 12 31 17 WSW 1018,7 - 0,0
14.08.2019 00:00:00 15,6 12,3 17 9 29 16 WSW 1018,9 - 0,0
13.08.2019 23:00:00 15,9 12,3 21 11 30 16 WSW 1019,1 12 0,0
13.08.2019 22:00:00 15,9 11,9 21 11 32 18 SW 1019,1 - 0,0
13.08.2019 21:00:00 16,1 12,3 25 14 35 19 SW 1018,8 - 0,0
13.08.2019 20:00:00 16,5 11,8 25 13 37 20 WSW 1018,7 14 0,0
13.08.2019 19:00:00 17,2 11,5 26 14 41 22 WSW 1018,6 - 0,0
13.08.2019 18:00:00 17,5 12,0 25 14 43 23 WSW 1018,6 - 0,0
13.08.2019 17:00:00 17,1 11,6 32 17 41 22 WSW 1018,5 - 0,0
13.08.2019 16:00:00 17,0 11,9 29 16 40 22 SW 1018,6 - 0,0
13.08.2019 15:00:00 16,4 11,5 27 15 37 20 SW 1019,0 - 0,0
13.08.2019 14:00:00 15,9 10,6 24 13 34 19 SW 1019,0 10 0,0
13.08.2019 13:00:00 15,0 11,8 19 11 34 18 SW 1019,0 - 0,0
13.08.2019 12:00:00 14,2 11,9 18 10 40 22 WSW 1019,0 - 1,2
13.08.2019 11:00:00 13,9 11,1 25 14 42 23 WSW 1019,1 7 0,4
13.08.2019 10:00:00 15,6 11,2 26 14 38 21 WSW 1018,6 - 0,0
13.08.2019 09:00:00 15,3 10,5 22 12 39 21 WSW 1018,6 - 0,0
13.08.2019 08:00:00 14,5 11,8 21 11 40 22 W 1018,3 - 0,0
13.08.2019 07:00:00 14,8 10,4 23 12 38 21 W 1018,2 - 0,0
13.08.2019 06:00:00 14,5 9,9 24 13 39 21 W 1017,8 - 0,0
13.08.2019 05:00:00 14,5 10,7 25 14 39 21 W 1017,9 - 0,0
13.08.2019 04:00:00 15,0 11,2 26 14 37 20 W 1017,8 - 0,0
13.08.2019 03:00:00 15,6 11,0 27 15 42 23 W 1017,7 - 0,0
13.08.2019 02:00:00 15,5 11,1 23 12 39 21 W 1017,8 - 0,0
13.08.2019 01:00:00 15,4 12,0 19 10 34 18 W 1017,8 - 0,0
13.08.2019 00:00:00 14,9 11,1 16 9 29 16 W 1017,6 - 0,0
12.08.2019 23:00:00 14,8 10,0 16 9 29 16 W 1017,3 18 0,0
12.08.2019 22:00:00 14,3 10,1 17 9 35 19 NNW 1017,0 - 0,4
12.08.2019 21:00:00 15,0 12,3 15 8 26 14 WNW 1016,3 - 0,0
12.08.2019 20:00:00 15,1 12,6 3 2 - - W 1015,5 - -
12.08.2019 19:00:00 - - - - - - - - - -
12.08.2019 18:00:00 - - - - - - - - - -
12.08.2019 17:00:00 - - - - - - - - - -
12.08.2019 16:00:00 - - - - - - - - - -
12.08.2019 15:00:00 17,5 13,2 20 11 33 18 SW 1014,5 - 0,0
12.08.2019 14:00:00 17,1 12,4 22 12 36 19 WSW 1014,7 13 0,0
12.08.2019 13:00:00 16,8 13,5 - - - - - 1014,8 - 0,0
12.08.2019 12:00:00 16,6 13,7 14 8 - - WSW 1014,9 - 0,8
12.08.2019 11:00:00 15,0 13,4 9 5 42 23 SSE 1015,4 - 1,2
12.08.2019 10:00:00 16,4 13,1 23 12 32 17 SW 1015,1 - 0,0
12.08.2019 09:00:00 16,5 13,0 - - - - - 1014,6 - 0,0
12.08.2019 08:00:00 16,4 12,9 26 14 41 22 WSW 1014,2 - 0,0
12.08.2019 07:00:00 16,4 12,9 29 15 42 23 WSW 1014,3 - 0,0
12.08.2019 06:00:00 16,3 13,0 24 13 46 25 WSW 1014,3 - 0,0
12.08.2019 05:00:00 16,3 12,8 26 14 41 22 WSW 1014,4 14 0,0
12.08.2019 04:00:00 16,2 13,1 22 12 41 22 WSW 1014,5 - 0,0
12.08.2019 03:00:00 16,2 12,9 28 15 - - WSW 1014,5 - 0,0
12.08.2019 02:00:00 16,5 13,2 29 16 46 25 WSW 1014,7 - 0,0
12.08.2019 01:00:00 16,6 12,7 30 16 45 25 WSW 1014,9 - 0,0
12.08.2019 00:00:00 16,8 12,3 30 16 46 25 WSW 1015,0 - 0,0
11.08.2019 23:00:00 16,9 13,4 31 17 48 26 WSW 1014,7 14 0,0
11.08.2019 22:00:00 16,9 13,0 31 17 45 24 SW 1014,6 - 0,0
11.08.2019 21:00:00 17,1 13,6 31 17 46 25 SW 1014,3 - 0,0
11.08.2019 20:00:00 17,5 13,8 31 17 45 24 WSW 1014,1 12 0,0
11.08.2019 19:00:00 18,1 13,6 34 18 51 27 WSW 1013,7 - 0,0
11.08.2019 18:00:00 18,0 13,7 35 19 51 28 SW 1013,6 - 0,0
11.08.2019 17:00:00 18,1 13,4 28 15 53 29 SW 1013,7 12 0,0
11.08.2019 16:00:00 18,3 13,6 35 19 53 29 SW 1013,6 - 0,0

tt = Température de l'air
td = dewpoint
ff = Vitesse du vent
fx = gusts
dd = Direction du vent
ppp = reduced air pressure
vv = visibility
rr = Quantités de précipitations

stations d'obs. à proximité